Location: Lamoine Observatory
(44.4551°N, 68.3470°W)
Time: 18:49:43
(UTC-04:00)

Daily predictions for brighter satellites

Satellite Brightness Start Highest point End
(mag) Time Altitude Azimuth Time Altitude Azimuth Time Altitude Azimuth
Resurs 01 Rocket 3.2 20:37:18 10° SSW 20:41:23 36° W 20:45:30 10° NNW
CZ-4B DEB 3.0 20:38:38 10° SSE 20:41:26 44° ENE 20:44:16 10° N
Cosmos 1606 3.7 20:41:46 10° NNE 20:45:07 29° ENE 20:48:25 10° SE
SAR-Lupe-4 3.9 20:43:32 10° SSE 20:46:59 49° ENE 20:50:28 10° N
Cosmos 1346 Rocket 3.0 20:43:44 10° NNW 20:47:42 76° W 20:51:41 10° S
Lacrosse 5 rocket 1.4 20:44:23 10° SSW 20:47:42 38° SE 20:51:07 10° ENE
Shenzhou-11 Module 3.9 20:48:46 10° WSW 20:51:06 20° SSW 20:53:26 10° SSE
ATLAS 5 CENTAUR R/B 2.9 20:47:43 10° NNW 20:53:26 49° NE 20:59:35 10° ESE
Cosmos 2142 Rocket 4.5 20:48:01 10° N 20:54:09 70° E 21:00:16 10° SSE
YAOGAN 6 2.7 20:50:57 10° SSE 20:54:40 86° W 20:58:22 10° NNW
Cosmos 2346 Rocket 4.5 20:49:19 10° S 20:55:22 90° E 21:01:29 10° N
Cosmos 1939 Rocket 3.5 20:51:42 10° S 20:55:48 59° W 20:59:52 10° NNW
Aureole 1 4.2 20:54:58 10° SSW 20:57:59 71° ESE 21:01:30 10° NNE
MetOp-B 4.5 20:54:40 10° SE 20:59:49 51° ENE 21:05:00 10° N
Okean 1-7 3.1 20:56:45 10° N 21:01:09 64° E 21:05:30 10° SSE
Cosmos 1937 Rocket 4.5 20:58:11 10° SW 21:03:10 51° WNW 21:08:13 10° NNE
Aureole 3 2.8 21:00:38 10° S 21:03:34 48° E 21:06:29 10° NNE
H-2A ROCKET BODY 3.9 21:03:05 10° S 21:04:05 11° SSE 21:05:17 10° SSE
GPS 2-04 Rocket1 4.1 21:02:51 10° SW 21:05:38 20° S 21:07:35 14° SE
H-2A R/B 3.1 21:01:31 11° SE 21:06:02 33° ENE 21:10:45 10° N
SAR-Lupe-1 4.0 21:04:53 10° SSE 21:08:26 78° ENE 21:12:02 10° N
Cosmos 158 Rocket 4.0 21:03:54 10° NNW 21:08:45 58° ENE 21:12:56 13° SE
ARGOS 3.4 21:06:05 11° SE 21:11:05 53° ENE 21:16:18 10° N
Meteor 1-29 3.0 21:09:08 10° NNE 21:12:40 86° WNW 21:16:09 10° SSW
Cosmos 1703 Rocket 4.0 21:09:22 10° NNW 21:13:45 64° W 21:18:05 10° S
DNEPR-1 R/B 4.0 21:09:08 10° SSW 21:14:10 49° ESE 21:18:32 10° NE
Cosmos 1408 2.5 21:18:37 10° S 21:22:19 70° E 21:26:03 10° NNE
Milstar 3 4.3 21:16:55 10° SW 21:25:30 25° S 21:29:45 16° SE
Cosmos 1782 2.8 21:21:32 10° N 21:25:33 82° W 21:29:11 12° S
Cosmos 1733 Rocket 3.8 21:24:43 18° SE 21:27:20 33° E 21:31:13 10° NNE
ERS-1 Rocket 3.1 21:23:39 10° S 21:28:41 75° WSW 21:33:45 10° NNW
SL-08 RB Rocket 3.8 21:28:54 17° SSE 21:32:24 64° ENE 21:37:02 10° N
Cosmos 1825 2.1 21:28:48 10° S 21:32:34 88° E 21:36:23 10° N
Cosmos 2344 3.8 21:25:45 10° S 21:33:05 52° ESE 21:41:09 10° NE
Cosmos 1869 Rocket 4.2 21:29:57 10° SSW 21:34:12 57° W 21:38:31 10° N
Cosmos 1048 Rocket 4.1 21:30:13 10° NNW 21:35:34 84° WSW 21:39:40 17° SSE
BREEZE-M DEB (TANK) 3.2 21:32:42 10° WNW 21:35:46 79° NNE 21:46:57 11° ESE
Helios 1B rocket 3.9 21:32:01 10° N 21:35:52 40° WNW 21:39:43 10° SW
Cosmos 2227 Rocket 4.4 21:35:25 10° N 21:38:17 14° NE 21:41:10 10° ENE
USA 215 3.3 21:35:07 18° SE 21:40:14 78° SW 21:46:50 10° NW
Landsat 7 4.4 21:38:35 21° SE 21:41:19 42° ENE 21:45:49 10° N
Cosmos 2219 4.3 21:39:42 10° N 21:44:55 34° NE 21:48:28 18° ESE
MetOp-A 4.5 21:40:51 12° S 21:45:49 64° WSW 21:51:09 10° NNW
Cosmos 1862 3.2 21:43:53 18° S 21:46:47 72° E 21:50:44 10° NNE
Lacrosse 4 Rocket 1.5 21:42:25 10° NNW 21:46:58 88° WSW 21:49:28 26° SSE
ISS -2.9 21:51:10 10° W 21:54:21 49° NNW 21:57:32 10° NE
Cosmos 1943 Rocket 2.3 21:48:53 10° SSW 21:54:29 80° WNW 22:00:04 10° NNE
DMSP B5D2-2 4.4 21:49:50 10° NNE 21:54:52 46° E 21:57:39 24° SSE
Terra 2.4 21:54:15 25° ESE 21:56:28 42° ENE 22:00:57 10° N
Cosmos 1812 4.4 21:54:32 10° NNE 21:57:26 20° ENE 21:58:11 19° E
Cosmos 2251 Rocket 4.1 21:52:51 10° N 21:57:53 44° ENE 22:00:27 26° ESE
ATLAS CENTAUR R/B 3.3 21:59:57 14° E 21:59:57 14° E 22:00:56 10° ENE
CARTOSAT-1 4.1 21:59:11 29° ESE 22:00:53 44° ENE 22:05:01 10° N
Cosmos 1674 Rocket 3.5 21:58:20 10° N 22:02:40 67° E 22:04:29 33° SSE
Cosmos 1378 Rocket 4.3 21:59:23 10° N 22:03:33 39° ENE 22:04:59 30° ESE
SPOT 1/Viking Rocket 3.6 22:00:53 23° S 22:04:10 83° WSW 22:09:25 10° NNW
Cosmos 1340 3.8 22:02:50 10° NNW 22:06:25 40° W 22:08:45 19° SSW
CENTAUR R/B 2.8 22:01:10 10° SW 22:07:15 72° NW 22:14:16 10° NE
Cosmos 372 Rocket 4.5 22:02:20 10° SSW 22:07:24 60° WNW 22:12:28 10° NNE
Cosmos 1437 2.9 22:06:54 10° N 22:10:03 52° ENE 22:10:20 50° E
Cosmos 1092 Rocket 4.0 22:07:21 24° SSE 22:11:04 62° E 22:17:08 10° NNE
BREEZE M DEB (TANK) 3.6 22:00:57 10° WSW 22:11:23 89° S 22:14:43 10° ENE
Nadezhda 4 Rocket 3.9 22:06:49 16° S 22:11:57 88° E 22:18:10 10° N
SPOT 5 3.7 22:08:10 18° S 22:12:04 54° W 22:17:17 10° NNW
COSMOS 2455 4.4 22:07:23 10° WSW 22:12:56 38° NW 22:18:31 10° NNE
GEOS 3 Rocket 3.6 22:13:40 31° SE 22:16:14 75° NE 22:21:30 10° NW
Cosmos 2369 Rocket 3.9 22:11:19 10° WSW 22:16:26 34° NW 22:21:37 10° N
H-2A R/B 2.6 22:16:52 34° ESE 22:17:52 40° ENE 22:21:44 10° N
Cosmos 405 Rocket 3.9 22:15:14 10° NNE 22:18:25 26° ENE 22:18:42 26° E
Okean 3 3.3 22:22:04 10° N 22:26:16 74° E 22:27:18 49° SSE
Lacrosse 5 rocket 3.1 22:23:43 10° W 22:26:56 30° NNW 22:30:16 10° NNE
IGS 5A 3.3 22:29:14 49° SSE 22:30:19 86° ENE 22:34:30 10° NNW
Spot 4 4.4 22:30:06 36° ESE 22:31:31 47° ENE 22:36:08 10° N
CZ-4 R/B 4.2 22:27:40 10° NNE 22:32:05 41° E 22:32:36 39° ESE
Cosmos 2297 Rocket 3.7 22:28:53 10° N 22:33:34 26° NE 22:36:27 17° E
ATLAS 5 CENTAUR R/B 3.4 22:32:35 10° NW 22:38:07 37° WSW 22:41:08 24° SSW
Cosmos 1908 Rocket 3.5 22:38:32 46° S 22:39:51 88° E 22:44:20 10° N
Cosmos 1867 3.6 22:34:48 10° NW 22:40:16 75° WSW 22:42:05 43° SSE
Cosmos 1441 Rocket 4.2 22:40:55 10° N 22:44:27 34° ENE 22:44:27 34° ENE
H-2A R/B 3.3 22:42:09 19° SSW 22:45:22 36° W 22:50:16 10° NNW
Cosmos 494 Rocket 4.3 22:42:32 10° NNW 22:47:40 59° WSW 22:49:23 39° SSW
Okean 2 Rocket 3.5 22:48:28 43° E 22:48:33 43° E 22:52:45 10° NNE
DELTA 2 DEB (DPAF) 4.5 22:48:13 45° ESE 22:48:56 51° ENE 22:53:16 10° N
Cosmos 1656 Rocket 4.1 22:48:00 11° SW 22:53:11 60° WNW 22:58:40 10° NNE
CZ-2C R/B 4.1 22:54:36 28° E 22:55:49 31° ENE 23:00:08 10° N
deb Chang Zheng 4 3.5 22:55:04 10° NNE 22:59:32 78° ESE 23:00:04 66° SSE
Meteor 1-20 Rocket 4.2 23:01:57 47° S 23:03:36 75° E 23:09:18 10° NNE
CZ-4B R/B 3.3 22:59:34 10° NNE 23:04:32 66° ESE 23:05:09 59° SE
Cosmos 1782 Rocket 3.5 23:06:36 65° SSW 23:07:12 81° W 23:11:37 10° N
APEX 3.7 23:03:39 10° NNW 23:08:08 51° ENE 23:08:14 51° ENE
Meteor 1-25 Rocket 4.2 23:07:14 44° S 23:09:12 90° W 23:15:05 10° N
Sich 1 Rocket 4.5 23:12:21 32° WSW 23:13:48 44° WNW 23:18:03 10° N
Cosmos 1655 Rocket 3.9 23:13:16 44° S 23:15:25 89° E 23:21:42 10° N
CZ-2C R/B 3.1 23:17:59 10° NNE 23:22:55 42° E 23:22:58 42° E
Cosmos 2227 Rocket 2.3 23:17:49 10° NNW 23:23:29 67° ENE 23:24:44 52° ESE
Cosmos 1975 Rocket 3.6 23:23:20 10° NNW 23:27:39 49° W 23:28:04 47° WSW
Cosmos 2219 3.9 23:23:47 10° NW 23:29:09 41° WSW 23:30:23 36° SW
Cosmos 2026 Rocket 4.5 23:28:05 31° SW 23:30:55 55° WNW 23:37:05 10° N
ISS -1.3 23:28:40 10° WNW 23:31:20 23° N 23:34:01 10° NE
Cosmos 1656 4.4 23:31:54 36° E 23:31:54 36° E 23:36:31 10° NE
Cosmos 1633 3.3 23:33:17 50° N 23:33:17 50° N 23:36:02 10° N
ALOS 2 3.2 23:32:47 45° ENE 23:32:49 45° ENE 23:37:01 10° N
CZ-4C R/B 4.0 23:26:51 10° NNW 23:33:11 37° NE 23:39:22 13° E
Cosmos 1812 4.1 23:29:55 10° NNW 23:33:20 30° W 23:33:20 30° W
Terra 3.5 23:33:08 20° WSW 23:34:23 23° W 23:38:08 10° NW
ATLAS CENTAUR R/B 2.2 23:36:09 39° W 23:36:52 44° NW 23:40:33 10° NNE
BREEZE-M DEB (TANK) 4.5 23:20:14 10° SW 23:41:14 52° SSE 23:46:19 10° ENE
Cosmos 2151 Rocket 3.6 23:44:35 79° NNE 23:44:35 79° NNE 23:48:47 10° N
Meteor 1-11 Rocket 3.9 23:43:43 57° SE 23:44:34 64° E 23:50:27 10° NNE
Gbstr 26 Del rocket 3.3 23:40:44 10° WNW 23:44:07 54° NW 23:44:07 54° NW
ARGOS Delta rocket 4.4 23:41:11 10° N 23:45:28 44° WNW 23:46:12 40° W
Cosmos 1536 4.0 23:47:21 36° ENE 23:47:21 36° ENE 23:50:15 10° NNE
Cosmos 2369 3.6 23:46:56 64° SE 23:47:22 66° ESE 23:53:02 10° NNE
CZ-4C R/B 4.4 23:50:08 39° W 23:50:08 39° W 23:53:51 10° NNW
Cosmos 1980 Rocket 3.7 23:51:05 22° E 23:51:05 22° E 23:54:40 10° NE
Meteor 2-4 Rocket 3.6 23:45:18 10° N 23:50:38 66° ENE 23:51:11 61° ESE
Cosmos 1536 Rocket 3.6 23:46:56 10° N 23:51:02 76° NNW 23:51:02 76° NNW
S3M 4.2 23:45:28 10° NNW 23:51:28 59° W 23:52:56 47° SW
Cosmos 883 Rocket 4.4 23:45:48 10° N 23:52:00 76° E 23:53:10 59° SSE
H-2A R/B 4.0 23:53:59 18° W 23:54:04 18° W 23:56:55 10° NW
